Content
SEND FEEDBACK

Daily
Averages
Monthly
Summary
United States of America

ASATDAS, GUAM


Home > North America > United States > Guam
Elevation: 612 feet     Latitude: 13 35N     Longitude: 144 56E

WEATHER
 
SELECT A DAY
Number of Records: 209,308;   Date Range: 1/1/95 - 9/18/14
 
SHARE

PRINT THIS DATA

[ ← Previous Day ]
WEATHER ALMANAC - FEBRUARY 19, 2013
[ Next Day → ]
[ °C ]   °F
Weather ElementAverageHighLow
Temperature79.6 °F85.8 °F (11:54 am)75 °F (3:54 am)
Dewpoint74.1 °F75.9 °F (11:54 am)71.1 °F (11:54 pm)
Humidity83.7 %100 % (3:23 am)72 % (11:54 am)
Barometer29.85 in29.90 in (10:31 am)29.80 in (2:54 pm)
Wind Speed16.4 mph25.3 mph (12:20 pm)
Wind Gust33.4 mph (12:20 pm)
Weather ElementAverage
Visibility9.8 mi
Wind DirectionENE (78.9 °)

Weather ElementTotal
Precipitation0.03 in
Cooling Degree Days15.4 (Base 65)
Growing Degree Days30.4 (Base 50)
Averaged from 37 records on February 19, 2013
WEATHER CONDITIONS BREAKOUT
WIND DIRECTION BREAKOUT
WEATHER BY HOUR - FEBRUARY 19, 2013
[ °C ]   °F
Local TimeTemperatureDewpointHumidityBarometerVisibilityWind DirectionWind SpeedGust SpeedPrecipitationEventsConditions
1:54 AM75.9 °F73.0 °F91 %29.84 in10.0 miEast (80°)13.8 mphPartly Cloudy
2:54 AM75.9 °F73.9 °F94 %29.83 in10.0 miEast (90°)12.7 mphMostly Cloudy
3:14 AM75.2 °F73.4 °F94 %29.85 in8.0 miEast (80°)15.0 mph24.2 mph0.00 inRainLight Rain
3:23 AM75.2 °F75.2 °F100 %29.84 in10.0 miEast (80°)13.8 mph0.00 inScattered Clouds
3:54 AM75.0 °F73.9 °F96 %29.81 in10.0 miEast (80°)15.0 mph0.00 inMostly Cloudy
4:54 AM75.0 °F73.0 °F94 %29.82 in10.0 miEast (80°)16.1 mph23.0 mphScattered Clouds
5:29 AM75.2 °F73.4 °F94 %29.85 in10.0 miEast (80°)16.1 mph23.0 mphMostly Cloudy
5:54 AM75.0 °F73.0 °F94 %29.84 in10.0 miEast (80°)13.8 mphMostly Cloudy
6:11 AM75.2 °F71.6 °F89 %29.86 in10.0 miEast (80°)16.1 mphScattered Clouds
6:54 AM75.9 °F72.0 °F87 %29.86 in10.0 miENE (70°)16.1 mph24.2 mphMostly Cloudy
7:54 AM75.9 °F73.0 °F91 %29.88 in10.0 miENE (70°)15.0 mph23.0 mphOvercast
8:54 AM81.5 °F74.3 °F79 %29.88 in10.0 miENE (70°)19.6 mph29.9 mphScattered Clouds
9:54 AM83.3 °F75.4 °F77 %29.89 in10.0 miENE (70°)15.0 mph29.9 mphMostly Cloudy
10:31 AM84.2 °F75.2 °F74 %29.90 in10.0 miEast (80°)20.7 mph28.8 mphScattered Clouds
10:54 AM84.4 °F75.6 °F75 %29.87 in10.0 miENE (70°)20.7 mph31.1 mphMostly Cloudy
11:54 AM85.8 °F75.9 °F72 %29.86 in10.0 miEast (80°)21.9 mph28.8 mphMostly Cloudy
12:20 PM84.2 °F75.2 °F74 %29.87 in10.0 miEast (80°)25.3 mph33.4 mphMostly Cloudy
12:54 PM85.1 °F75.2 °F72 %29.84 in10.0 miENE (70°)24.2 mph31.1 mphScattered Clouds
1:54 PM84.7 °F75.9 °F75 %29.81 in7.0 miEast (90°)16.1 mph25.3 mph0.01 inMostly Cloudy
2:54 PM82.8 °F75.6 °F79 %29.80 in10.0 miEast (80°)18.4 mph27.6 mphScattered Clouds
3:17 PM82.4 °F75.2 °F79 %29.82 in10.0 miEast (80°)19.6 mph26.5 mphMostly Cloudy
3:31 PM82.4 °F75.2 °F79 %29.82 in10.0 miEast (90°)15.0 mph25.3 mphScattered Clouds
3:54 PM83.7 °F75.7 °F77 %29.80 in10.0 miEast (90°)19.6 mph26.5 mphScattered Clouds
4:23 PM80.6 °F73.4 °F79 %29.82 in7.0 miENE (70°)17.3 mph24.2 mph0.00 inRainLight Rain
4:31 PM80.6 °F73.4 °F79 %29.82 in10.0 miENE (70°)17.3 mph23.0 mph0.00 inMostly Cloudy
4:54 PM81.3 °F73.9 °F78 %29.81 in10.0 miENE (60°)16.1 mph24.2 mph0.00 inScattered Clouds
5:54 PM79.2 °F75.0 °F87 %29.82 in10.0 miENE (70°)16.1 mph20.7 mph0.02 inMostly Cloudy
6:08 PM78.8 °F75.2 °F89 %29.84 in10.0 miENE (70°)17.3 mph27.6 mph0.00 inScattered Clouds
6:54 PM77.7 °F75.0 °F91 %29.83 in10.0 miEast (80°)13.8 mph0.00 inMostly Cloudy
7:54 PM79.2 °F73.0 °F81 %29.85 in10.0 miEast (80°)15.0 mph21.9 mphMostly Cloudy
8:08 PM78.8 °F73.4 °F83 %29.87 in10.0 miEast (90°)18.4 mph24.2 mphScattered Clouds
8:16 PM78.8 °F73.4 °F83 %29.87 in10.0 miEast (90°)11.5 mph24.2 mphMostly Cloudy
8:50 PM78.8 °F73.4 °F83 %29.88 in10.0 miEast (90°)11.5 mph20.7 mphScattered Clouds
8:54 PM79.5 °F73.9 °F83 %29.86 in10.0 miEast (80°)12.7 mph19.6 mphScattered Clouds
9:54 PM79.2 °F73.9 °F84 %29.86 in10.0 miEast (80°)13.8 mphPartly Cloudy
10:54 PM78.4 °F73.0 °F83 %29.86 in10.0 miEast (90°)9.2 mph0.00 inMostly Cloudy
11:54 PM78.8 °F71.1 °F77 %29.86 in10.0 miEast (80°)18.4 mph24.2 mphClear
Hourly data recorded from PGUM, located miles away from Asatdas, Guam







STORIES FROM OUR PARTNERS